Time,TemperatureF,DewpointF,PressureIn,WindDirection,WindDirectionDegrees,WindSpeedMPH,WindSpeedGustMPH,Humidity,HourlyPrecipIn,Conditions,Clouds,dailyrainin,SolarRadiationWatts/m^2,SoftwareType,DateUTC
2013-09-27 00:00:00,82.4,76.0,29.80,SSE,150,5.0,17.2,81,0.00,,---,0.00,0.00,VWS V14.01,2013-09-27 05:00:00,
2013-09-27 00:01:00,82.4,76.0,29.80,SE,133,10.0,11.2,81,0.00,,---,0.00,0.00,VWS V14.01,2013-09-27 05:01:00,
2013-09-27 00:05:00,82.4,76.0,29.80,SE,136,5.0,15.2,81,0.00,,---,0.00,0.00,VWS V14.01,2013-09-27 05:05:00,
2013-09-27 00:06:00,82.4,76.0,29.80,SE,126,9.0,11.2,81,0.00,,---,0.00,0.00,VWS V14.01,2013-09-27 05:06:00,
2013-09-27 00:10:00,82.4,76.0,29.80,SSE,153,16.0,17.2,81,0.00,,---,0.00,0.00,VWS V14.01,2013-09-27 05:10:00,
2013-09-27 00:11:00,82.4,76.4,29.80,SE,126,13.0,17.2,82,0.00,,---,0.00,0.00,VWS V14.01,2013-09-27 05:11:00,
2013-09-27 00:15:00,82.4,76.4,29.80,SSE,155,9.0,17.2,82,0.00,,---,0.00,0.00,VWS V14.01,2013-09-27 05:15:00,
2013-09-27 00:16:00,82.4,76.4,29.80,SE,138,9.0,13.2,82,0.00,,---,0.00,0.00,VWS V14.01,2013-09-27 05:16:00,
2013-09-27 00:20:00,82.6,76.9,29.80,SSE,158,3.0,14.2,83,0.00,,---,0.00,0.00,VWS V14.01,2013-09-27 05:20:00,
2013-09-27 00:21:00,82.6,76.9,29.80,SSE,162,4.0,6.2,83,0.00,,---,0.00,0.00,VWS V14.01,2013-09-27 05:21:00,
2013-09-27 00:25:00,82.6,76.9,29.80,SSE,161,11.0,16.2,83,0.00,,---,0.00,0.00,VWS V14.01,2013-09-27 05:25:00,
2013-09-27 00:26:00,82.6,76.9,29.80,SSE,161,12.0,13.2,83,0.00,,---,0.00,0.00,VWS V14.01,2013-09-27 05:26:00,
2013-09-27 00:30:00,82.8,77.5,29.80,SSE,168,7.0,14.2,84,0.00,,---,0.00,0.00,VWS V14.01,2013-09-27 05:30:00,
2013-09-27 00:31:00,82.8,77.5,29.80,SSE,150,11.0,12.2,84,0.00,,---,0.00,0.00,VWS V14.01,2013-09-27 05:31:00,
2013-09-27 00:35:00,82.6,76.9,29.80,SE,136,7.0,13.2,83,0.00,,---,0.00,0.00,VWS V14.01,2013-09-27 05:35:00,
2013-09-27 00:36:00,82.6,76.9,29.80,SSE,153,9.0,11.2,83,0.00,,---,0.00,0.00,VWS V14.01,2013-09-27 05:36:00,
2013-09-27 00:40:00,82.4,76.7,29.80,SE,142,9.0,16.2,83,0.00,,---,0.00,0.00,VWS V14.01,2013-09-27 05:40:00,
2013-09-27 00:41:00,82.4,76.7,29.80,SE,146,5.0,10.2,83,0.00,,---,0.00,0.00,VWS V14.01,2013-09-27 05:41:00,
2013-09-27 00:45:00,82.2,76.5,29.79,SSE,150,9.0,18.2,83,0.00,,---,0.00,0.00,VWS V14.01,2013-09-27 05:45:00,
2013-09-27 00:46:00,82.2,76.5,29.79,SE,141,6.0,12.2,83,0.00,,---,0.00,0.00,VWS V14.01,2013-09-27 05:46:00,
2013-09-27 00:50:00,82.2,76.2,29.79,SSE,150,10.0,15.2,82,0.00,,---,0.00,0.00,VWS V14.01,2013-09-27 05:50:00,
2013-09-27 00:51:00,82.2,76.2,29.79,SSE,167,13.0,14.2,82,0.00,,---,0.00,0.00,VWS V14.01,2013-09-27 05:51:00,
2013-09-27 00:55:00,82.2,75.8,29.79,ESE,118,9.0,14.2,81,0.00,,---,0.00,0.00,VWS V14.01,2013-09-27 05:55:00,
2013-09-27 00:56:00,82.2,75.8,29.79,SE,144,11.0,16.2,81,0.00,,---,0.00,0.00,VWS V14.01,2013-09-27 05:56:00,
2013-09-27 01:00:00,82.2,76.5,29.79,ESE,123,4.0,16.2,83,0.00,,---,0.00,0.00,VWS V14.01,2013-09-27 06:00:00,
2013-09-27 01:01:00,82.2,76.5,29.79,SSE,149,4.0,10.2,83,0.00,,---,0.00,0.00,VWS V14.01,2013-09-27 06:01:00,
2013-09-27 01:05:00,82.0,76.3,29.79,SSE,163,4.0,16.2,83,0.00,,---,0.00,0.00,VWS V14.01,2013-09-27 06:05:00,
2013-09-27 01:06:00,82.0,76.0,29.79,SSE,155,10.0,11.2,82,0.00,,---,0.00,0.00,VWS V14.01,2013-09-27 06:06:00,
2013-09-27 01:10:00,82.2,76.2,29.79,SE,133,4.0,14.2,82,0.00,,---,0.00,0.00,VWS V14.01,2013-09-27 06:10:00,
2013-09-27 01:11:00,82.2,76.2,29.79,SSE,163,13.0,14.2,82,0.00,,---,0.00,0.00,VWS V14.01,2013-09-27 06:11:00,
2013-09-27 01:15:00,82.6,76.6,29.79,SE,143,8.0,14.2,82,0.00,,---,0.00,0.00,VWS V14.01,2013-09-27 06:15:00,
2013-09-27 01:16:00,82.6,76.6,29.79,SSE,155,4.0,9.2,82,0.00,,---,0.00,0.00,VWS V14.01,2013-09-27 06:16:00,
2013-09-27 01:20:00,82.2,76.5,29.79,SE,142,6.0,14.2,83,0.00,,---,0.00,0.00,VWS V14.01,2013-09-27 06:20:00,
2013-09-27 01:21:00,82.2,76.5,29.79,SE,146,4.0,8.2,83,0.00,,---,0.00,0.00,VWS V14.01,2013-09-27 06:21:00,
2013-09-27 01:25:00,82.2,76.9,29.79,SE,136,6.0,14.2,84,0.00,,---,0.00,0.00,VWS V14.01,2013-09-27 06:25:00,
2013-09-27 01:26:00,82.2,76.9,29.79,SE,125,5.0,10.2,84,0.00,,---,0.00,0.00,VWS V14.01,2013-09-27 06:26:00,
2013-09-27 01:30:00,82.2,76.9,29.79,SE,133,7.0,14.2,84,0.00,,---,0.00,0.00,VWS V14.01,2013-09-27 06:30:00,
2013-09-27 01:31:00,82.2,76.9,29.79,SE,134,6.0,8.2,84,0.00,,---,0.00,0.00,VWS V14.01,2013-09-27 06:31:00,
2013-09-27 01:35:00,82.2,76.9,29.79,SSE,153,6.0,13.2,84,0.00,,---,0.00,0.00,VWS V14.01,2013-09-27 06:35:00,
2013-09-27 01:36:00,82.2,76.9,29.79,SSE,150,11.0,12.2,84,0.00,,---,0.00,0.00,VWS V14.01,2013-09-27 06:36:00,
2013-09-27 01:40:00,82.2,76.5,29.79,SSE,147,9.0,14.2,83,0.00,,---,0.00,0.00,VWS V14.01,2013-09-27 06:40:00,
2013-09-27 01:41:00,82.2,76.5,29.79,SSE,155,12.0,13.2,83,0.00,,---,0.00,0.00,VWS V14.01,2013-09-27 06:41:00,
2013-09-27 01:45:00,82.4,76.7,29.79,SE,138,3.0,14.2,83,0.00,,---,0.00,0.00,VWS V14.01,2013-09-27 06:45:00,
2013-09-27 01:46:00,82.4,76.7,29.79,South,175,6.0,7.2,83,0.00,,---,0.00,0.00,VWS V14.01,2013-09-27 06:46:00,
2013-09-27 01:50:00,82.2,76.9,29.79,South,171,9.0,12.2,84,0.00,,---,0.00,0.00,VWS V14.01,2013-09-27 06:50:00,
2013-09-27 01:51:00,82.2,76.9,29.79,SSE,165,4.0,10.2,84,0.00,,---,0.00,0.00,VWS V14.01,2013-09-27 06:51:00,
2013-09-27 01:55:00,82.2,76.9,29.79,SE,135,4.0,15.2,84,0.00,,---,0.00,0.00,VWS V14.01,2013-09-27 06:55:00,
2013-09-27 01:56:00,82.2,76.9,29.79,SSE,153,9.0,10.2,84,0.00,,---,0.00,0.00,VWS V14.01,2013-09-27 06:56:00,
2013-09-27 02:00:00,82.4,76.7,29.79,SSE,156,11.0,15.2,83,0.00,,---,0.00,0.00,VWS V14.01,2013-09-27 07:00:00,
2013-09-27 02:01:00,82.4,76.7,29.79,SE,142,8.0,12.2,83,0.00,,---,0.00,0.00,VWS V14.01,2013-09-27 07:01:00,
2013-09-27 02:05:00,82.0,76.7,29.79,SE,140,5.0,12.2,84,0.00,,---,0.00,0.00,VWS V14.01,2013-09-27 07:05:00,
2013-09-27 02:06:00,82.0,76.7,29.79,ESE,110,10.0,11.2,84,0.00,,---,0.00,0.00,VWS V14.01,2013-09-27 07:06:00,
2013-09-27 02:10:00,81.8,76.5,29.79,SE,125,5.0,13.2,84,0.00,,---,0.00,0.00,VWS V14.01,2013-09-27 07:10:00,
2013-09-27 02:11:00,81.8,76.5,29.79,SSE,155,6.0,9.2,84,0.00,,---,0.00,0.00,VWS V14.01,2013-09-27 07:11:00,
2013-09-27 02:15:00,81.8,76.5,29.78,SE,138,6.0,13.2,84,0.00,,---,0.00,0.00,VWS V14.01,2013-09-27 07:15:00,
2013-09-27 02:16:00,81.8,76.5,29.78,SE,133,4.0,8.2,84,0.00,,---,0.00,0.00,VWS V14.01,2013-09-27 07:16:00,
2013-09-27 02:20:00,81.8,76.5,29.78,SE,145,8.0,17.2,84,0.00,,---,0.00,0.00,VWS V14.01,2013-09-27 07:20:00,
2013-09-27 02:21:00,81.8,76.5,29.78,SE,141,5.0,10.2,84,0.00,,---,0.00,0.00,VWS V14.01,2013-09-27 07:21:00,
2013-09-27 02:25:00,81.8,76.5,29.78,SSE,150,5.0,13.2,84,0.00,,---,0.00,0.00,VWS V14.01,2013-09-27 07:25:00,
2013-09-27 02:26:00,81.8,76.5,29.78,SE,132,9.0,10.2,84,0.00,,---,0.00,0.00,VWS V14.01,2013-09-27 07:26:00,
2013-09-27 02:30:00,81.8,76.8,29.79,SE,140,6.0,15.2,85,0.00,,---,0.00,0.00,VWS V14.01,2013-09-27 07:30:00,
2013-09-27 02:31:00,81.8,76.8,29.79,SE,138,6.0,7.2,85,0.00,,---,0.00,0.00,VWS V14.01,2013-09-27 07:31:00,
2013-09-27 02:35:00,81.8,76.8,29.79,SE,129,9.0,15.2,85,0.00,,---,0.00,0.00,VWS V14.01,2013-09-27 07:35:00,
2013-09-27 02:36:00,81.8,76.8,29.79,SSE,152,7.0,12.2,85,0.00,,---,0.00,0.00,VWS V14.01,2013-09-27 07:36:00,
2013-09-27 02:40:00,82.0,77.1,29.79,SSE,148,7.0,12.2,85,0.00,,---,0.00,0.00,VWS V14.01,2013-09-27 07:40:00,
2013-09-27 02:41:00,82.2,77.2,29.79,SSE,159,7.0,8.2,85,0.00,,---,0.00,0.00,VWS V14.01,2013-09-27 07:41:00,
2013-09-27 02:45:00,82.4,77.1,29.78,ESE,121,3.0,12.2,84,0.00,,---,0.00,0.00,VWS V14.01,2013-09-27 07:45:00,
2013-09-27 02:46:00,82.4,77.1,29.78,ESE,122,5.0,6.2,84,0.00,,---,0.00,0.00,VWS V14.01,2013-09-27 07:46:00,
2013-09-27 02:49:00,82.4,77.1,29.78,SSE,153,6.0,7.2,84,0.00,,---,0.00,0.00,VWS V14.01,2013-09-27 07:49:00,
2013-09-27 02:50:00,82.2,77.2,29.78,SE,132,6.0,10.2,85,0.00,,---,0.00,0.00,VWS V14.01,2013-09-27 07:50:00,
2013-09-27 02:54:00,82.2,77.2,29.78,SE,126,1.0,12.2,85,0.00,,---,0.00,0.00,VWS V14.01,2013-09-27 07:54:00,
2013-09-27 02:55:00,82.0,76.7,29.78,SE,142,5.0,12.2,84,0.00,,---,0.00,0.00,VWS V14.01,2013-09-27 07:55:00,
2013-09-27 02:59:00,82.0,76.7,29.78,SSE,156,2.0,16.2,84,0.00,,---,0.00,0.00,VWS V14.01,2013-09-27 07:59:00,
2013-09-27 03:00:00,82.0,76.7,29.78,SSE,154,6.0,16.2,84,0.00,,---,0.00,0.00,VWS V14.01,2013-09-27 08:00:00,
2013-09-27 03:04:00,81.8,76.5,29.78,SE,144,2.0,8.2,84,0.00,,---,0.00,0.00,VWS V14.01,2013-09-27 08:04:00,
2013-09-27 03:05:00,81.8,76.5,29.78,SSE,148,4.0,10.2,84,0.00,,---,0.00,0.00,VWS V14.01,2013-09-27 08:05:00,
2013-09-27 03:09:00,81.6,76.7,29.78,SE,133,7.0,9.2,85,0.00,,---,0.00,0.00,VWS V14.01,2013-09-27 08:09:00,
2013-09-27 03:10:00,81.6,76.7,29.78,SSE,160,7.0,11.2,85,0.00,,---,0.00,0.00,VWS V14.01,2013-09-27 08:10:00,
2013-09-27 03:14:00,81.6,76.7,29.78,SSE,150,5.0,11.2,85,0.00,,---,0.00,0.00,VWS V14.01,2013-09-27 08:14:00,
2013-09-27 03:15:00,81.6,76.7,29.78,SSE,151,2.0,11.2,85,0.00,,---,0.00,0.00,VWS V14.01,2013-09-27 08:15:00,
2013-09-27 03:19:00,81.6,76.7,29.78,SE,140,9.0,11.2,85,0.00,,---,0.00,0.00,VWS V14.01,2013-09-27 08:19:00,
2013-09-27 03:20:00,81.6,76.7,29.78,SE,146,7.0,12.2,85,0.00,,---,0.00,0.00,VWS V14.01,2013-09-27 08:20:00,
2013-09-27 03:24:00,81.8,76.8,29.78,SE,139,3.0,15.2,85,0.00,,---,0.00,0.00,VWS V14.01,2013-09-27 08:24:00,
2013-09-27 03:25:00,82.0,76.7,29.78,SSE,165,4.0,15.2,84,0.00,,---,0.00,0.00,VWS V14.01,2013-09-27 08:25:00,
2013-09-27 03:29:00,81.8,76.5,29.78,SSE,151,5.0,10.2,84,0.00,,---,0.00,0.00,VWS V14.01,2013-09-27 08:29:00,
2013-09-27 03:30:00,81.8,76.5,29.78,SE,146,6.0,13.2,84,0.00,,---,0.00,0.00,VWS V14.01,2013-09-27 08:30:00,
2013-09-27 03:34:00,81.6,76.7,29.78,SE,144,7.0,12.2,85,0.00,,---,0.00,0.00,VWS V14.01,2013-09-27 08:34:00,
2013-09-27 03:35:00,81.6,76.7,29.78,SE,139,5.0,12.2,85,0.00,,---,0.00,0.00,VWS V14.01,2013-09-27 08:35:00,
2013-09-27 03:39:00,81.6,76.7,29.78,SE,134,4.0,10.2,85,0.00,,---,0.00,0.00,VWS V14.01,2013-09-27 08:39:00,
2013-09-27 03:40:00,81.6,77.0,29.78,ESE,113,6.0,12.2,86,0.00,,---,0.00,0.00,VWS V14.01,2013-09-27 08:40:00,
2013-09-27 03:44:00,81.6,77.0,29.78,SSE,148,8.0,14.2,86,0.00,,---,0.00,0.00,VWS V14.01,2013-09-27 08:44:00,
2013-09-27 03:45:00,81.6,77.0,29.77,SSE,156,5.0,14.2,86,0.00,,---,0.00,0.00,VWS V14.01,2013-09-27 08:45:00,
2013-09-27 03:49:00,81.6,77.0,29.77,SE,132,5.0,11.2,86,0.00,,---,0.00,0.00,VWS V14.01,2013-09-27 08:49:00,
2013-09-27 03:50:00,81.6,77.0,29.77,SE,134,4.0,13.2,86,0.00,,---,0.00,0.00,VWS V14.01,2013-09-27 08:50:00,
2013-09-27 03:54:00,81.6,77.0,29.77,SSE,148,4.0,11.2,86,0.00,,---,0.00,0.00,VWS V14.01,2013-09-27 08:54:00,
2013-09-27 03:55:00,81.4,77.2,29.77,SSE,153,5.0,11.2,87,0.00,,---,0.00,0.00,VWS V14.01,2013-09-27 08:55:00,
2013-09-27 03:59:00,81.4,77.2,29.77,SE,138,4.0,13.2,87,0.00,,---,0.00,0.00,VWS V14.01,2013-09-27 08:59:00,
2013-09-27 04:00:00,81.6,77.4,29.77,SE,133,4.0,13.2,87,0.00,,---,0.00,0.00,VWS V14.01,2013-09-27 09:00:00,
2013-09-27 04:04:00,81.6,77.4,29.77,SE,146,4.0,10.2,87,0.00,,---,0.00,0.00,VWS V14.01,2013-09-27 09:04:00,
2013-09-27 04:05:00,81.8,77.6,29.77,South,176,7.0,13.2,87,0.00,,---,0.00,0.00,VWS V14.01,2013-09-27 09:05:00,
2013-09-27 04:09:00,82.0,77.4,29.77,SE,136,3.0,14.2,86,0.00,,---,0.00,0.00,VWS V14.01,2013-09-27 09:09:00,
2013-09-27 04:10:00,82.2,77.2,29.77,ESE,121,5.0,14.2,85,0.00,,---,0.00,0.00,VWS V14.01,2013-09-27 09:10:00,
2013-09-27 04:14:00,82.2,77.2,29.77,SSE,158,4.0,8.2,85,0.00,,---,0.00,0.00,VWS V14.01,2013-09-27 09:14:00,
2013-09-27 04:15:00,82.2,77.2,29.77,SE,138,6.0,9.2,85,0.00,,---,0.00,0.00,VWS V14.01,2013-09-27 09:15:00,
2013-09-27 04:19:00,82.2,77.2,29.76,SSE,150,12.0,13.2,85,0.00,,---,0.00,0.00,VWS V14.01,2013-09-27 09:19:00,
2013-09-27 04:20:00,82.2,77.2,29.77,SE,144,6.0,13.2,85,0.00,,---,0.00,0.00,VWS V14.01,2013-09-27 09:20:00,
2013-09-27 04:24:00,82.0,77.1,29.76,SSE,165,12.0,13.2,85,0.00,,---,0.00,0.00,VWS V14.01,2013-09-27 09:24:00,
2013-09-27 04:25:00,82.0,77.1,29.77,SE,142,6.0,14.2,85,0.00,,---,0.00,0.00,VWS V14.01,2013-09-27 09:25:00,
2013-09-27 04:29:00,81.8,77.2,29.76,SE,137,4.0,11.2,86,0.00,,---,0.00,0.00,VWS V14.01,2013-09-27 09:29:00,
2013-09-27 04:30:00,81.8,77.2,29.76,South,175,9.0,11.2,86,0.00,,---,0.00,0.00,VWS V14.01,2013-09-27 09:30:00,
2013-09-27 04:34:00,81.8,77.2,29.76,SSE,153,10.0,12.2,86,0.00,,---,0.00,0.00,VWS V14.01,2013-09-27 09:34:00,
2013-09-27 04:35:00,81.8,77.2,29.76,ESE,111,7.0,12.2,86,0.00,,---,0.00,0.00,VWS V14.01,2013-09-27 09:35:00,
2013-09-27 04:39:00,81.6,77.0,29.76,SE,132,10.0,12.2,86,0.00,,---,0.00,0.00,VWS V14.01,2013-09-27 09:39:00,
2013-09-27 04:40:00,81.6,77.0,29.76,SE,146,6.0,12.2,86,0.00,,---,0.00,0.00,VWS V14.01,2013-09-27 09:40:00,
2013-09-27 04:44:00,81.6,77.0,29.76,SE,135,5.0,12.2,86,0.00,,---,0.00,0.00,VWS V14.01,2013-09-27 09:44:00,
2013-09-27 04:45:00,81.6,77.4,29.76,SSE,153,4.0,12.2,87,0.00,,---,0.00,0.00,VWS V14.01,2013-09-27 09:45:00,
2013-09-27 04:49:00,81.8,77.6,29.76,SSE,155,2.0,11.2,87,0.00,,---,0.00,0.00,VWS V14.01,2013-09-27 09:49:00,
2013-09-27 04:50:00,82.0,77.4,29.76,SE,138,6.0,11.2,86,0.00,,---,0.00,0.00,VWS V14.01,2013-09-27 09:50:00,
2013-09-27 04:54:00,81.8,77.2,29.76,SE,137,7.0,10.2,86,0.00,,---,0.00,0.00,VWS V14.01,2013-09-27 09:54:00,
2013-09-27 04:55:00,81.8,77.2,29.76,SE,132,6.0,13.2,86,0.00,,---,0.00,0.00,VWS V14.01,2013-09-27 09:55:00,
2013-09-27 04:59:00,81.8,77.6,29.76,SSE,153,4.0,12.2,87,0.00,,---,0.00,0.00,VWS V14.01,2013-09-27 09:59:00,
2013-09-27 05:00:00,81.6,77.4,29.76,ESE,121,5.0,12.2,87,0.00,,---,0.00,0.00,VWS V14.01,2013-09-27 10:00:00,
2013-09-27 05:04:00,81.6,77.7,29.76,SE,145,3.0,8.2,88,0.00,,---,0.00,0.00,VWS V14.01,2013-09-27 10:04:00,
2013-09-27 05:05:00,81.6,77.7,29.76,SSE,163,5.0,12.2,88,0.00,,---,0.00,0.00,VWS V14.01,2013-09-27 10:05:00,
2013-09-27 05:09:00,81.6,77.7,29.76,SSE,149,5.0,6.2,88,0.00,,---,0.00,0.00,VWS V14.01,2013-09-27 10:09:00,
2013-09-27 05:10:00,81.6,77.7,29.76,SSE,157,4.0,11.2,88,0.00,,---,0.00,0.00,VWS V14.01,2013-09-27 10:10:00,
2013-09-27 05:14:00,81.6,77.7,29.76,SE,136,6.0,10.2,88,0.00,,---,0.00,0.00,VWS V14.01,2013-09-27 10:14:00,
2013-09-27 05:15:00,81.6,77.7,29.76,East,94,6.0,10.2,88,0.00,,---,0.00,0.00,VWS V14.01,2013-09-27 10:15:00,
2013-09-27 05:19:00,81.6,77.7,29.76,ESE,112,3.0,13.2,88,0.00,,---,0.00,0.00,VWS V14.01,2013-09-27 10:19:00,
2013-09-27 05:20:00,81.6,77.7,29.76,SE,142,6.0,13.2,88,0.00,,---,0.00,0.00,VWS V14.01,2013-09-27 10:20:00,
2013-09-27 05:24:00,81.8,77.9,29.76,SE,142,6.0,9.2,88,0.00,,---,0.00,0.00,VWS V14.01,2013-09-27 10:24:00,
2013-09-27 05:25:00,82.0,78.1,29.76,SE,129,6.0,10.2,88,0.00,,---,0.00,0.00,VWS V14.01,2013-09-27 10:25:00,
2013-09-27 05:29:00,82.2,78.3,29.76,SE,140,8.0,12.2,88,0.00,,---,0.00,0.00,VWS V14.01,2013-09-27 10:29:00,
2013-09-27 05:30:00,82.2,77.9,29.76,SSE,152,9.0,12.2,87,0.00,,---,0.00,0.00,VWS V14.01,2013-09-27 10:30:00,
2013-09-27 05:34:00,82.2,77.9,29.76,SE,127,6.0,13.2,87,0.00,,---,0.00,0.00,VWS V14.01,2013-09-27 10:34:00,
2013-09-27 05:35:00,82.2,77.9,29.76,SSE,156,5.0,13.2,87,0.00,,---,0.00,0.00,VWS V14.01,2013-09-27 10:35:00,
2013-09-27 05:39:00,82.2,77.9,29.76,SE,142,7.0,11.2,87,0.00,,---,0.00,0.00,VWS V14.01,2013-09-27 10:39:00,
2013-09-27 05:40:00,82.2,77.9,29.76,SSE,150,4.0,13.2,87,0.00,,---,0.00,0.00,VWS V14.01,2013-09-27 10:40:00,
2013-09-27 05:44:00,82.2,77.9,29.76,SE,129,8.0,10.2,87,0.00,,---,0.00,0.00,VWS V14.01,2013-09-27 10:44:00,
2013-09-27 05:45:00,82.2,77.9,29.76,ESE,123,11.0,13.2,87,0.00,,---,0.00,0.00,VWS V14.01,2013-09-27 10:45:00,
2013-09-27 05:49:00,82.2,78.3,29.76,ESE,107,9.0,12.2,88,0.00,,---,0.00,0.00,VWS V14.01,2013-09-27 10:49:00,
2013-09-27 05:50:00,82.2,78.3,29.76,SE,125,4.0,12.2,88,0.00,,---,0.00,0.00,VWS V14.01,2013-09-27 10:50:00,
2013-09-27 05:54:00,82.0,78.1,29.76,SE,128,5.0,15.2,88,0.00,,---,0.00,0.00,VWS V14.01,2013-09-27 10:54:00,
2013-09-27 05:55:00,81.8,77.9,29.76,SE,142,9.0,16.2,88,0.00,,---,0.00,0.00,VWS V14.01,2013-09-27 10:55:00,
2013-09-27 05:59:00,81.8,77.9,29.76,ESE,123,5.0,12.2,88,0.00,,---,0.00,0.00,VWS V14.01,2013-09-27 10:59:00,
2013-09-27 06:00:00,82.0,78.1,29.77,ESE,111,2.0,12.2,88,0.00,,---,0.00,0.00,VWS V14.01,2013-09-27 11:00:00,
2013-09-27 06:04:00,82.2,78.3,29.77,ESE,123,7.0,12.2,88,0.00,,---,0.00,0.00,VWS V14.01,2013-09-27 11:04:00,
2013-09-27 06:05:00,82.2,78.3,29.77,SSE,148,5.0,12.2,88,0.00,,---,0.00,0.00,VWS V14.01,2013-09-27 11:05:00,
2013-09-27 06:09:00,82.2,78.3,29.77,SE,139,4.0,12.2,88,0.00,,---,0.00,0.00,VWS V14.01,2013-09-27 11:09:00,
2013-09-27 06:10:00,82.0,78.1,29.77,SE,138,10.0,12.2,88,0.00,,---,0.00,0.00,VWS V14.01,2013-09-27 11:10:00,
2013-09-27 06:14:00,81.8,77.9,29.77,SE,133,7.0,12.2,88,0.00,,---,0.00,0.00,VWS V14.01,2013-09-27 11:14:00,
2013-09-27 06:15:00,81.8,78.2,29.77,SSE,151,9.0,15.2,89,0.00,,---,0.00,0.00,VWS V14.01,2013-09-27 11:15:00,
2013-09-27 06:19:00,81.8,78.2,29.77,SE,128,3.0,12.2,89,0.00,,---,0.00,0.00,VWS V14.01,2013-09-27 11:19:00,
2013-09-27 06:20:00,81.8,78.2,29.77,SE,138,5.0,13.2,89,0.00,,---,0.00,0.00,VWS V14.01,2013-09-27 11:20:00,
2013-09-27 06:24:00,82.0,77.4,29.77,SE,138,7.0,14.2,86,0.00,,---,0.00,0.00,VWS V14.01,2013-09-27 11:24:00,
2013-09-27 06:25:00,82.0,78.4,29.77,SE,141,8.0,14.2,89,0.00,,---,0.00,0.00,VWS V14.01,2013-09-27 11:25:00,
2013-09-27 06:29:00,81.8,78.2,29.77,SE,130,5.0,14.2,89,0.00,,---,0.00,0.00,VWS V14.01,2013-09-27 11:29:00,
2013-09-27 06:30:00,81.8,78.2,29.78,SE,145,6.0,14.2,89,0.00,,---,0.00,0.00,VWS V14.01,2013-09-27 11:30:00,
2013-09-27 06:34:00,81.8,78.2,29.78,SE,126,7.0,14.2,89,0.00,,---,0.00,0.00,VWS V14.01,2013-09-27 11:34:00,
2013-09-27 06:35:00,81.8,78.2,29.78,SSE,166,6.0,14.2,89,0.00,,---,0.00,0.00,VWS V14.01,2013-09-27 11:35:00,
2013-09-27 06:39:00,82.0,78.4,29.78,SE,128,6.0,14.2,89,0.00,,---,0.00,0.00,VWS V14.01,2013-09-27 11:39:00,
2013-09-27 06:40:00,82.2,78.6,29.78,SE,140,9.0,14.2,89,0.00,,---,0.00,0.00,VWS V14.01,2013-09-27 11:40:00,
2013-09-27 06:44:00,82.2,79.0,29.78,SSE,160,4.0,13.2,90,0.00,,---,0.00,0.00,VWS V14.01,2013-09-27 11:44:00,
2013-09-27 06:45:00,82.2,78.3,29.78,SE,129,9.0,14.2,88,0.00,,---,0.00,0.00,VWS V14.01,2013-09-27 11:45:00,
2013-09-27 06:49:00,82.2,78.3,29.78,ESE,117,5.0,15.2,88,0.00,,---,0.00,0.00,VWS V14.01,2013-09-27 11:49:00,
2013-09-27 06:50:00,82.4,78.5,29.78,East,92,8.0,15.2,88,0.00,,---,0.00,0.00,VWS V14.01,2013-09-27 11:50:00,
2013-09-27 06:54:00,82.4,78.5,29.78,SE,138,11.0,13.2,88,0.00,,---,0.00,0.00,VWS V14.01,2013-09-27 11:54:00,
2013-09-27 06:55:00,82.4,78.5,29.78,SE,124,5.0,13.2,88,0.00,,---,0.00,0.00,VWS V14.01,2013-09-27 11:55:00,
2013-09-27 06:59:00,82.4,78.5,29.78,SE,125,6.0,11.2,88,0.00,,---,0.00,0.00,VWS V14.01,2013-09-27 11:59:00,
2013-09-27 07:00:00,82.2,78.6,29.78,SE,141,10.0,13.2,89,0.00,,---,0.00,0.00,VWS V14.01,2013-09-27 12:00:00,
2013-09-27 07:04:00,82.0,78.4,29.78,SSE,150,6.0,16.2,89,0.00,,---,0.00,0.00,VWS V14.01,2013-09-27 12:04:00,
2013-09-27 07:05:00,82.0,78.4,29.78,SE,136,7.0,16.2,89,0.00,,---,0.00,0.00,VWS V14.01,2013-09-27 12:05:00,
2013-09-27 07:09:00,82.0,78.4,29.78,SE,128,8.0,14.2,89,0.00,,---,0.00,0.00,VWS V14.01,2013-09-27 12:09:00,
2013-09-27 07:10:00,82.0,78.4,29.78,SE,133,6.0,14.2,89,0.00,,---,0.00,0.00,VWS V14.01,2013-09-27 12:10:00,
2013-09-27 07:14:00,82.0,78.8,29.78,SSE,149,8.0,15.2,90,0.00,,---,0.00,0.00,VWS V14.01,2013-09-27 12:14:00,
2013-09-27 07:15:00,82.0,78.8,29.78,ESE,122,9.0,15.2,90,0.00,,---,0.00,0.00,VWS V14.01,2013-09-27 12:15:00,
2013-09-27 07:19:00,82.2,79.0,29.78,SE,134,4.0,10.2,90,0.00,,---,0.00,0.00,VWS V14.01,2013-09-27 12:19:00,
2013-09-27 07:20:00,82.4,78.8,29.78,SSE,151,7.0,14.2,89,0.00,,---,0.00,0.00,VWS V14.01,2013-09-27 12:20:00,
2013-09-27 07:24:00,82.4,78.8,29.78,ESE,110,4.0,13.2,89,0.00,,---,0.00,5.00,VWS V14.01,2013-09-27 12:24:00,
2013-09-27 07:25:00,82.2,78.6,29.78,SE,133,7.0,14.2,89,0.00,,---,0.00,7.00,VWS V14.01,2013-09-27 12:25:00,
2013-09-27 07:29:00,82.2,79.0,29.78,SE,135,10.0,13.2,90,0.00,,---,0.00,9.00,VWS V14.01,2013-09-27 12:29:00,
2013-09-27 07:30:00,82.2,79.0,29.78,SE,143,3.0,13.2,90,0.00,,---,0.00,11.00,VWS V14.01,2013-09-27 12:30:00,
2013-09-27 07:34:00,82.2,79.0,29.78,ESE,116,3.0,13.2,90,0.00,,---,0.00,14.00,VWS V14.01,2013-09-27 12:34:00,
2013-09-27 07:35:00,82.2,79.0,29.78,SE,133,8.0,14.2,90,0.00,,---,0.00,16.00,VWS V14.01,2013-09-27 12:35:00,
2013-09-27 07:39:00,82.2,79.0,29.78,SE,126,4.0,13.2,90,0.00,,---,0.00,19.00,VWS V14.01,2013-09-27 12:39:00,
2013-09-27 07:40:00,82.2,79.0,29.78,SE,128,3.0,13.2,90,0.00,,---,0.00,21.00,VWS V14.01,2013-09-27 12:40:00,
2013-09-27 07:44:00,82.2,79.0,29.78,SE,140,7.0,15.2,90,0.00,,---,0.00,21.00,VWS V14.01,2013-09-27 12:44:00,
2013-09-27 07:45:00,82.2,79.0,29.78,ESE,109,6.0,15.2,90,0.00,,---,0.00,25.00,VWS V14.01,2013-09-27 12:45:00,
2013-09-27 07:49:00,82.2,79.0,29.78,SE,128,9.0,14.2,90,0.00,,---,0.00,30.00,VWS V14.01,2013-09-27 12:49:00,
2013-09-27 07:50:00,82.4,79.2,29.78,SE,137,10.0,15.2,90,0.00,,---,0.00,39.00,VWS V14.01,2013-09-27 12:50:00,
2013-09-27 07:54:00,82.6,79.0,29.78,SE,142,11.0,16.2,89,0.00,,---,0.00,40.00,VWS V14.01,2013-09-27 12:54:00,
2013-09-27 07:55:00,82.6,79.0,29.78,SSE,152,5.0,16.2,89,0.00,,---,0.00,33.00,VWS V14.01,2013-09-27 12:55:00,
2013-09-27 07:59:00,82.8,79.2,29.78,SSE,150,4.0,13.2,89,0.00,,---,0.00,67.00,VWS V14.01,2013-09-27 12:59:00,
2013-09-27 08:00:00,83.0,79.4,29.79,SE,125,9.0,13.2,89,0.00,,---,0.00,84.00,VWS V14.01,2013-09-27 13:00:00,
2013-09-27 08:04:00,83.4,79.5,29.79,SE,127,10.0,16.2,88,0.00,,---,0.00,139.00,VWS V14.01,2013-09-27 13:04:00,
2013-09-27 08:05:00,83.6,79.7,29.79,SE,136,12.0,16.2,88,0.00,,---,0.00,104.00,VWS V14.01,2013-09-27 13:05:00,
2013-09-27 08:09:00,83.4,79.5,29.79,ESE,122,3.0,13.2,88,0.00,,---,0.00,109.00,VWS V14.01,2013-09-27 13:09:00,
2013-09-27 08:10:00,83.4,79.5,29.79,SE,142,7.0,13.2,88,0.00,,---,0.00,174.00,VWS V14.01,2013-09-27 13:10:00,
2013-09-27 08:14:00,83.6,79.7,29.79,SE,138,17.0,18.2,88,0.00,,---,0.00,188.00,VWS V14.01,2013-09-27 13:14:00,
2013-09-27 08:15:00,83.6,79.3,29.79,SSE,148,11.0,18.2,87,0.00,,---,0.00,62.00,VWS V14.01,2013-09-27 13:15:00,
2013-09-27 08:19:00,83.4,79.1,29.79,SE,127,7.0,17.2,87,0.00,,---,0.00,134.00,VWS V14.01,2013-09-27 13:19:00,
2013-09-27 08:20:00,83.4,79.1,29.79,SSE,150,11.0,17.2,87,0.00,,---,0.00,127.00,VWS V14.01,2013-09-27 13:20:00,
2013-09-27 08:24:00,83.6,79.3,29.79,SE,144,5.0,17.2,87,0.00,,---,0.00,83.00,VWS V14.01,2013-09-27 13:24:00,
2013-09-27 08:25:00,83.6,79.3,29.79,ESE,105,6.0,17.2,87,0.00,,---,0.00,58.00,VWS V14.01,2013-09-27 13:25:00,
2013-09-27 08:29:00,83.4,79.1,29.79,SSE,158,7.0,14.2,87,0.00,,---,0.00,54.00,VWS V14.01,2013-09-27 13:29:00,
2013-09-27 08:30:00,83.4,79.5,29.80,SSE,155,10.0,14.2,88,0.00,,---,0.00,81.00,VWS V14.01,2013-09-27 13:30:00,
2013-09-27 08:34:00,83.4,79.5,29.80,SE,126,10.0,14.2,88,0.00,,---,0.00,135.00,VWS V14.01,2013-09-27 13:34:00,
2013-09-27 08:35:00,83.6,79.7,29.80,ESE,123,11.0,16.2,88,0.00,,---,0.00,202.00,VWS V14.01,2013-09-27 13:35:00,
2013-09-27 08:39:00,83.6,79.3,29.80,ESE,109,12.0,15.2,87,0.00,,---,0.00,156.00,VWS V14.01,2013-09-27 13:39:00,
2013-09-27 08:40:00,83.8,79.5,29.80,ESE,120,4.0,15.2,87,0.00,,---,0.00,216.00,VWS V14.01,2013-09-27 13:40:00,
2013-09-27 08:44:00,84.1,79.5,29.80,SSE,149,6.0,15.2,86,0.00,,---,0.00,262.00,VWS V14.01,2013-09-27 13:44:00,
2013-09-27 08:45:00,84.3,79.3,29.80,SSE,164,8.0,15.2,85,0.00,,---,0.00,104.00,VWS V14.01,2013-09-27 13:45:00,
2013-09-27 08:48:00,84.3,79.3,29.80,SE,130,11.0,15.2,85,0.00,,---,0.00,294.00,VWS V14.01,2013-09-27 13:48:00,
2013-09-27 08:50:00,84.3,79.3,29.80,SE,134,14.0,15.2,85,0.00,,---,0.00,237.00,VWS V14.01,2013-09-27 13:50:00,
2013-09-27 08:53:00,84.3,79.3,29.80,South,170,13.0,20.2,85,0.00,,---,0.00,237.00,VWS V14.01,2013-09-27 13:53:00,
2013-09-27 08:55:00,84.5,79.5,29.80,SE,128,7.0,20.2,85,0.00,,---,0.00,290.00,VWS V14.01,2013-09-27 13:55:00,
2013-09-27 08:58:00,84.7,79.3,29.80,SE,133,13.0,14.2,84,0.00,,---,0.00,220.00,VWS V14.01,2013-09-27 13:58:00,
2013-09-27 09:00:00,84.7,79.3,29.80,South,173,6.0,17.2,84,0.00,,---,0.00,350.00,VWS V14.01,2013-09-27 14:00:00,
2013-09-27 09:03:00,84.9,79.5,29.80,SE,129,9.0,13.2,84,0.00,,---,0.00,345.00,VWS V14.01,2013-09-27 14:03:00,
2013-09-27 09:05:00,85.3,79.9,29.80,SE,128,5.0,14.2,84,0.00,,---,0.00,350.00,VWS V14.01,2013-09-27 14:05:00,
2013-09-27 09:08:00,85.3,79.9,29.80,ESE,115,10.0,13.2,84,0.00,,---,0.00,345.00,VWS V14.01,2013-09-27 14:08:00,
2013-09-27 09:10:00,85.1,79.4,29.80,SSE,148,4.0,15.2,83,0.00,,---,0.00,144.00,VWS V14.01,2013-09-27 14:10:00,
2013-09-27 09:13:00,84.9,79.2,29.80,SE,138,13.0,16.2,83,0.00,,---,0.00,434.00,VWS V14.01,2013-09-27 14:13:00,
2013-09-27 09:15:00,85.1,79.4,29.80,SSE,152,10.0,17.2,83,0.00,,---,0.00,290.00,VWS V14.01,2013-09-27 14:15:00,
2013-09-27 09:18:00,85.1,79.7,29.80,SE,143,13.0,14.2,84,0.00,,---,0.00,318.00,VWS V14.01,2013-09-27 14:18:00,
2013-09-27 09:20:00,85.1,79.4,29.80,SSE,167,12.0,14.2,83,0.00,,---,0.00,318.00,VWS V14.01,2013-09-27 14:20:00,
2013-09-27 09:23:00,85.1,79.4,29.80,SE,124,8.0,15.2,83,0.00,,---,0.00,153.00,VWS V14.01,2013-09-27 14:23:00,
2013-09-27 09:25:00,85.1,79.0,29.80,SE,128,9.0,17.2,82,0.00,,---,0.00,185.00,VWS V14.01,2013-09-27 14:25:00,
2013-09-27 09:28:00,85.1,79.0,29.80,SE,140,12.0,17.2,82,0.00,,---,0.00,185.00,VWS V14.01,2013-09-27 14:28:00,
2013-09-27 09:30:00,85.1,79.0,29.81,SE,128,13.0,17.2,82,0.00,,---,0.00,144.00,VWS V14.01,2013-09-27 14:30:00,
2013-09-27 09:33:00,84.9,78.8,29.81,SSE,149,8.0,14.2,82,0.00,,---,0.00,176.00,VWS V14.01,2013-09-27 14:33:00,
2013-09-27 09:35:00,84.9,79.2,29.81,SSE,147,6.0,14.2,83,0.00,,---,0.00,255.00,VWS V14.01,2013-09-27 14:35:00,
2013-09-27 09:38:00,84.9,79.5,29.81,ESE,117,4.0,16.2,84,0.00,,---,0.00,193.00,VWS V14.01,2013-09-27 14:38:00,
2013-09-27 09:40:00,85.1,79.4,29.81,SSE,147,8.0,16.2,83,0.00,,---,0.00,204.00,VWS V14.01,2013-09-27 14:40:00,
2013-09-27 09:43:00,85.1,79.4,29.81,SE,135,9.0,14.2,83,0.00,,---,0.00,204.00,VWS V14.01,2013-09-27 14:43:00,
2013-09-27 09:45:00,85.1,79.7,29.81,SE,137,10.0,16.2,84,0.00,,---,0.00,156.00,VWS V14.01,2013-09-27 14:45:00,
2013-09-27 09:48:00,84.9,79.2,29.81,SE,132,14.0,18.2,83,0.00,,---,0.00,192.00,VWS V14.01,2013-09-27 14:48:00,
2013-09-27 09:50:00,84.9,79.2,29.81,SE,143,13.0,18.2,83,0.00,,---,0.00,206.00,VWS V14.01,2013-09-27 14:50:00,
2013-09-27 09:53:00,85.1,79.4,29.81,East,83,9.0,14.2,83,0.00,,---,0.00,360.00,VWS V14.01,2013-09-27 14:53:00,
2013-09-27 09:55:00,85.5,79.0,29.81,SE,143,5.0,15.2,81,0.00,,---,0.00,360.00,VWS V14.01,2013-09-27 14:55:00,
2013-09-27 09:58:00,85.7,79.6,29.81,SE,134,9.0,14.2,82,0.00,,---,0.00,237.00,VWS V14.01,2013-09-27 14:58:00,
2013-09-27 10:00:00,85.7,79.6,29.81,SE,140,9.0,14.2,82,0.00,,---,0.00,244.00,VWS V14.01,2013-09-27 15:00:00,
2013-09-27 10:03:00,85.7,79.6,29.81,SSE,151,10.0,17.2,82,0.00,,---,0.00,304.00,VWS V14.01,2013-09-27 15:03:00,
2013-09-27 10:05:00,85.9,79.8,29.81,SSE,150,10.0,17.2,82,0.00,,---,0.00,181.00,VWS V14.01,2013-09-27 15:05:00,
2013-09-27 10:08:00,85.7,79.2,29.81,SSE,159,12.0,17.2,81,0.00,,---,0.00,271.00,VWS V14.01,2013-09-27 15:08:00,
2013-09-27 10:10:00,85.5,79.4,29.81,ESE,122,7.0,17.2,82,0.00,,---,0.00,257.00,VWS V14.01,2013-09-27 15:10:00,
2013-09-27 10:13:00,85.9,79.4,29.81,SE,134,14.0,15.2,81,0.00,,---,0.00,599.00,VWS V14.01,2013-09-27 15:13:00,
2013-09-27 10:15:00,86.1,78.8,29.81,SE,143,12.0,18.2,79,0.00,,---,0.00,577.00,VWS V14.01,2013-09-27 15:15:00,
2013-09-27 10:18:00,86.3,79.0,29.81,ESE,122,17.0,19.2,79,0.00,,---,0.00,613.00,VWS V14.01,2013-09-27 15:18:00,
2013-09-27 10:20:00,86.3,78.6,29.81,SE,142,11.0,20.2,78,0.00,,---,0.00,613.00,VWS V14.01,2013-09-27 15:20:00,
2013-09-27 10:23:00,86.3,79.0,29.81,SE,138,17.0,18.2,79,0.00,,---,0.00,613.00,VWS V14.01,2013-09-27 15:23:00,
2013-09-27 10:25:00,86.1,78.8,29.81,ESE,109,7.0,18.2,79,0.00,,---,0.00,213.00,VWS V14.01,2013-09-27 15:25:00,
2013-09-27 10:28:00,86.1,78.8,29.81,SE,138,12.0,16.2,79,0.00,,---,0.00,452.00,VWS V14.01,2013-09-27 15:28:00,
2013-09-27 10:30:00,86.5,79.2,29.81,SE,129,11.0,18.2,79,0.00,,---,0.00,705.00,VWS V14.01,2013-09-27 15:30:00,
2013-09-27 10:33:00,86.5,79.2,29.82,SE,140,14.0,18.2,79,0.00,,---,0.00,693.00,VWS V14.01,2013-09-27 15:33:00,
2013-09-27 10:35:00,86.7,79.4,29.81,SSE,148,9.0,18.2,79,0.00,,---,0.00,675.00,VWS V14.01,2013-09-27 15:35:00,
2013-09-27 10:38:00,87.0,79.7,29.82,SSE,159,16.0,17.2,79,0.00,,---,0.00,664.00,VWS V14.01,2013-09-27 15:38:00,
2013-09-27 10:40:00,87.2,79.5,29.81,SE,130,12.0,17.2,78,0.00,,---,0.00,696.00,VWS V14.01,2013-09-27 15:40:00,
2013-09-27 10:43:00,87.8,79.3,29.82,ESE,116,8.0,13.2,76,0.00,,---,0.00,657.00,VWS V14.01,2013-09-27 15:43:00,
2013-09-27 10:45:00,88.4,79.1,29.82,SE,132,12.0,16.2,74,0.00,,---,0.00,670.00,VWS V14.01,2013-09-27 15:45:00,
2013-09-27 10:48:00,88.6,78.8,29.82,SSE,148,12.0,15.2,73,0.00,,---,0.00,689.00,VWS V14.01,2013-09-27 15:48:00,
2013-09-27 10:50:00,88.4,79.1,29.82,SE,142,9.0,16.2,74,0.00,,---,0.00,691.00,VWS V14.01,2013-09-27 15:50:00,
2013-09-27 10:53:00,88.0,78.7,29.82,SSE,162,4.0,18.2,74,0.00,,---,0.00,369.00,VWS V14.01,2013-09-27 15:53:00,
2013-09-27 10:55:00,87.8,79.3,29.82,ESE,121,10.0,18.2,76,0.00,,---,0.00,749.00,VWS V14.01,2013-09-27 15:55:00,
2013-09-27 10:58:00,87.8,78.9,29.82,SSE,168,7.0,15.2,75,0.00,,---,0.00,696.00,VWS V14.01,2013-09-27 15:58:00,
2013-09-27 11:00:00,87.8,79.3,29.82,SSE,149,12.0,15.2,76,0.00,,---,0.00,705.00,VWS V14.01,2013-09-27 16:00:00,
2013-09-27 11:03:00,88.0,79.1,29.82,SE,134,15.0,16.2,75,0.00,,---,0.00,705.00,VWS V14.01,2013-09-27 16:03:00,
2013-09-27 11:05:00,88.0,78.7,29.82,South,175,6.0,18.2,74,0.00,,---,0.00,770.00,VWS V14.01,2013-09-27 16:05:00,
2013-09-27 11:08:00,87.8,78.9,29.82,SE,140,13.0,19.2,75,0.00,,---,0.00,770.00,VWS V14.01,2013-09-27 16:08:00,
2013-09-27 11:10:00,87.6,79.1,29.82,SE,135,7.0,19.2,76,0.00,,---,0.00,265.00,VWS V14.01,2013-09-27 16:10:00,
2013-09-27 11:13:00,87.6,79.1,29.82,ESE,123,5.0,17.2,76,0.00,,---,0.00,882.00,VWS V14.01,2013-09-27 16:13:00,
2013-09-27 11:15:00,87.8,78.5,29.82,ESE,115,5.0,18.2,74,0.00,,---,0.00,214.00,VWS V14.01,2013-09-27 16:15:00,
2013-09-27 11:18:00,87.6,78.7,29.82,SSE,154,7.0,17.2,75,0.00,,---,0.00,214.00,VWS V14.01,2013-09-27 16:18:00,
2013-09-27 11:20:00,87.4,78.9,29.82,SSE,147,6.0,17.2,76,0.00,,---,0.00,849.00,VWS V14.01,2013-09-27 16:20:00,
2013-09-27 11:23:00,87.4,78.5,29.82,SSE,148,4.0,17.2,75,0.00,,---,0.00,891.00,VWS V14.01,2013-09-27 16:23:00,
2013-09-27 11:25:00,87.6,78.7,29.82,SE,134,11.0,17.2,75,0.00,,---,0.00,916.00,VWS V14.01,2013-09-27 16:25:00,
2013-09-27 11:28:00,88.0,79.5,29.82,SE,127,5.0,16.2,76,0.00,,---,0.00,875.00,VWS V14.01,2013-09-27 16:28:00,
2013-09-27 11:30:00,88.2,79.3,29.83,SE,135,6.0,16.2,75,0.00,,---,0.00,847.00,VWS V14.01,2013-09-27 16:30:00,
2013-09-27 11:33:00,88.2,79.3,29.82,SSE,160,5.0,15.2,75,0.00,,---,0.00,431.00,VWS V14.01,2013-09-27 16:33:00,
2013-09-27 11:35:00,88.0,79.5,29.83,SE,132,9.0,15.2,76,0.00,,---,0.00,313.00,VWS V14.01,2013-09-27 16:35:00,
2013-09-27 11:38:00,88.2,78.9,29.82,South,175,12.0,14.2,74,0.00,,---,0.00,271.00,VWS V14.01,2013-09-27 16:38:00,
2013-09-27 11:40:00,88.2,79.3,29.83,SE,130,10.0,19.2,75,0.00,,---,0.00,972.00,VWS V14.01,2013-09-27 16:40:00,
2013-09-27 11:43:00,88.0,79.1,29.82,ESE,120,16.0,17.2,75,0.00,,---,0.00,972.00,VWS V14.01,2013-09-27 16:43:00,
2013-09-27 11:45:00,87.6,78.7,29.83,SSE,151,11.0,18.2,75,0.00,,---,0.00,311.00,VWS V14.01,2013-09-27 16:45:00,
2013-09-27 11:48:00,87.6,79.1,29.82,SE,134,6.0,18.2,76,0.00,,---,0.00,269.00,VWS V14.01,2013-09-27 16:48:00,
2013-09-27 11:50:00,87.4,78.9,29.83,SE,140,9.0,18.2,76,0.00,,---,0.00,367.00,VWS V14.01,2013-09-27 16:50:00,
2013-09-27 11:53:00,87.4,78.9,29.82,SSE,161,7.0,15.2,76,0.00,,---,0.00,345.00,VWS V14.01,2013-09-27 16:53:00,
2013-09-27 11:55:00,87.2,79.1,29.83,SSE,161,14.0,17.2,77,0.00,,---,0.00,947.00,VWS V14.01,2013-09-27 16:55:00,
2013-09-27 11:58:00,87.4,78.9,29.82,SE,133,13.0,18.2,76,0.00,,---,0.00,854.00,VWS V14.01,2013-09-27 16:58:00,
2013-09-27 12:00:00,88.0,79.5,29.82,SE,142,4.0,18.2,76,0.00,,---,0.00,835.00,VWS V14.01,2013-09-27 17:00:00,
2013-09-27 12:03:00,88.4,79.5,29.82,SE,128,10.0,14.2,75,0.00,,---,0.00,719.00,VWS V14.01,2013-09-27 17:03:00,
2013-09-27 12:05:00,88.4,78.7,29.82,ENE,67,15.0,19.2,73,0.00,,---,0.00,700.00,VWS V14.01,2013-09-27 17:05:00,
2013-09-27 12:08:00,88.2,78.9,29.82,SE,134,10.0,21.2,74,0.00,,---,0.00,851.00,VWS V14.01,2013-09-27 17:08:00,
2013-09-27 12:10:00,88.4,79.1,29.82,SE,138,14.0,21.2,74,0.00,,---,0.00,868.00,VWS V14.01,2013-09-27 17:10:00,
2013-09-27 12:13:00,88.4,78.7,29.82,SSE,161,8.0,17.2,73,0.00,,---,0.00,860.00,VWS V14.01,2013-09-27 17:13:00,
2013-09-27 12:15:00,88.6,78.8,29.82,SE,128,10.0,18.2,73,0.00,,---,0.00,844.00,VWS V14.01,2013-09-27 17:15:00,
2013-09-27 12:18:00,89.3,79.9,29.82,SE,135,10.0,13.2,74,0.00,,---,0.00,909.00,VWS V14.01,2013-09-27 17:18:00,
2013-09-27 12:20:00,89.3,79.5,29.82,SE,128,11.0,16.2,73,0.00,,---,0.00,953.00,VWS V14.01,2013-09-27 17:20:00,
2013-09-27 12:23:00,89.5,79.3,29.82,SSE,154,12.0,17.2,72,0.00,,---,0.00,420.00,VWS V14.01,2013-09-27 17:23:00,
2013-09-27 12:25:00,89.9,80.1,29.82,SE,128,9.0,17.2,73,0.00,,---,0.00,1035.00,VWS V14.01,2013-09-27 17:25:00,
2013-09-27 12:26:00,89.9,80.1,29.82,SE,134,10.0,17.2,73,0.00,,---,0.00,1035.00,VWS V14.01,2013-09-27 17:26:00,
2013-09-27 12:30:00,88.6,78.4,29.81,SE,135,13.0,21.2,72,0.00,,---,0.00,327.00,VWS V14.01,2013-09-27 17:30:00,
2013-09-27 12:31:00,88.8,78.6,29.82,SE,124,14.0,21.2,72,0.00,,---,0.00,320.00,VWS V14.01,2013-09-27 17:31:00,
2013-09-27 12:35:00,88.0,79.1,29.81,SE,133,3.0,18.2,75,0.00,,---,0.00,432.00,VWS V14.01,2013-09-27 17:35:00,
2013-09-27 12:36:00,88.0,79.1,29.82,SSE,148,8.0,18.2,75,0.00,,---,0.00,441.00,VWS V14.01,2013-09-27 17:36:00,
2013-09-27 12:40:00,88.0,79.1,29.81,SE,128,16.0,19.2,75,0.00,,---,0.00,432.00,VWS V14.01,2013-09-27 17:40:00,
2013-09-27 12:41:00,88.2,79.3,29.82,SE,129,11.0,19.2,75,0.00,,---,0.00,432.00,VWS V14.01,2013-09-27 17:41:00,
2013-09-27 12:45:00,88.4,79.5,29.81,ESE,107,11.0,19.2,75,0.00,,---,0.00,949.00,VWS V14.01,2013-09-27 17:45:00,
2013-09-27 12:46:00,88.4,79.5,29.81,SE,127,11.0,19.2,75,0.00,,---,0.00,949.00,VWS V14.01,2013-09-27 17:46:00,
2013-09-27 12:50:00,88.8,79.9,29.81,SE,137,6.0,15.2,75,0.00,,---,0.00,722.00,VWS V14.01,2013-09-27 17:50:00,
2013-09-27 12:51:00,88.8,79.9,29.81,SE,126,4.0,15.2,75,0.00,,---,0.00,383.00,VWS V14.01,2013-09-27 17:51:00,
2013-09-27 12:55:00,88.8,79.0,29.81,SE,144,10.0,21.2,73,0.00,,---,0.00,410.00,VWS V14.01,2013-09-27 17:55:00,
2013-09-27 12:56:00,89.0,79.2,29.81,SE,136,13.0,21.2,73,0.00,,---,0.00,410.00,VWS V14.01,2013-09-27 17:56:00,
2013-09-27 13:00:00,88.4,79.5,29.81,SE,142,11.0,19.2,75,0.00,,---,0.00,265.00,VWS V14.01,2013-09-27 18:00:00,
2013-09-27 13:01:00,88.4,79.5,29.81,SSW,194,9.0,19.2,75,0.00,,---,0.00,265.00,VWS V14.01,2013-09-27 18:01:00,
2013-09-27 13:05:00,88.4,79.1,29.81,SE,128,12.0,18.2,74,0.00,,---,0.00,418.00,VWS V14.01,2013-09-27 18:05:00,
2013-09-27 13:06:00,88.4,79.1,29.81,SE,127,11.0,18.2,74,0.00,,---,0.00,353.00,VWS V14.01,2013-09-27 18:06:00,
2013-09-27 13:10:00,88.2,79.3,29.81,SE,138,5.0,17.2,75,0.00,,---,0.00,928.00,VWS V14.01,2013-09-27 18:10:00,
2013-09-27 13:11:00,88.2,79.7,29.81,SSE,160,12.0,17.2,76,0.00,,---,0.00,928.00,VWS V14.01,2013-09-27 18:11:00,
2013-09-27 13:15:00,89.0,79.6,29.81,SE,138,14.0,18.2,74,0.00,,---,0.00,940.00,VWS V14.01,2013-09-27 18:15:00,
2013-09-27 13:16:00,88.8,79.4,29.81,SE,140,17.0,18.2,74,0.00,,---,0.00,940.00,VWS V14.01,2013-09-27 18:16:00,
2013-09-27 13:20:00,88.8,79.4,29.81,SSE,159,10.0,18.2,74,0.00,,---,0.00,907.00,VWS V14.01,2013-09-27 18:20:00,
2013-09-27 13:21:00,88.8,79.4,29.81,SE,146,11.0,18.2,74,0.00,,---,0.00,907.00,VWS V14.01,2013-09-27 18:21:00,
2013-09-27 13:25:00,89.3,79.9,29.81,SSE,151,14.0,19.2,74,0.00,,---,0.00,921.00,VWS V14.01,2013-09-27 18:25:00,
2013-09-27 13:26:00,89.3,79.9,29.81,SE,141,12.0,19.2,74,0.00,,---,0.00,921.00,VWS V14.01,2013-09-27 18:26:00,
2013-09-27 13:30:00,89.3,79.5,29.80,SE,137,9.0,17.2,73,0.00,,---,0.00,1041.00,VWS V14.01,2013-09-27 18:30:00,
2013-09-27 13:31:00,89.3,79.9,29.80,SE,136,11.0,17.2,74,0.00,,---,0.00,1041.00,VWS V14.01,2013-09-27 18:31:00,
2013-09-27 13:35:00,89.0,79.6,29.80,SE,129,6.0,19.2,74,0.00,,---,0.00,930.00,VWS V14.01,2013-09-27 18:35:00,
2013-09-27 13:36:00,89.3,79.9,29.80,ENE,75,8.0,19.2,74,0.00,,---,0.00,930.00,VWS V14.01,2013-09-27 18:36:00,
2013-09-27 13:40:00,88.6,79.2,29.80,ESE,107,11.0,20.2,74,0.00,,---,0.00,937.00,VWS V14.01,2013-09-27 18:40:00,
2013-09-27 13:41:00,88.6,79.2,29.80,SSE,150,13.0,20.2,74,0.00,,---,0.00,932.00,VWS V14.01,2013-09-27 18:41:00,
2013-09-27 13:45:00,89.0,80.1,29.80,SE,126,12.0,16.2,75,0.00,,---,0.00,1042.00,VWS V14.01,2013-09-27 18:45:00,
2013-09-27 13:46:00,88.8,79.9,29.80,SE,135,10.0,16.2,75,0.00,,---,0.00,1042.00,VWS V14.01,2013-09-27 18:46:00,
2013-09-27 13:50:00,88.8,79.9,29.80,SE,136,14.0,17.2,75,0.00,,---,0.00,995.00,VWS V14.01,2013-09-27 18:50:00,
2013-09-27 13:51:00,88.8,79.9,29.80,SE,136,14.0,17.2,75,0.00,,---,0.00,995.00,VWS V14.01,2013-09-27 18:51:00,
2013-09-27 13:55:00,89.7,80.3,29.80,SSE,161,12.0,20.2,74,0.00,,---,0.00,675.00,VWS V14.01,2013-09-27 18:55:00,
2013-09-27 13:56:00,89.5,80.1,29.80,SSE,163,7.0,20.2,74,0.00,,---,0.00,675.00,VWS V14.01,2013-09-27 18:56:00,
2013-09-27 14:00:00,89.5,79.7,29.79,SE,134,15.0,17.2,73,0.00,,---,0.00,909.00,VWS V14.01,2013-09-27 19:00:00,
2013-09-27 14:01:00,89.5,79.7,29.79,ESE,122,14.0,17.2,73,0.00,,---,0.00,891.00,VWS V14.01,2013-09-27 19:01:00,
2013-09-27 14:05:00,89.7,79.5,29.79,SE,128,9.0,18.2,72,0.00,,---,0.00,877.00,VWS V14.01,2013-09-27 19:05:00,
2013-09-27 14:06:00,89.7,79.9,29.79,SSE,153,9.0,18.2,73,0.00,,---,0.00,877.00,VWS V14.01,2013-09-27 19:06:00,
2013-09-27 14:10:00,89.5,79.7,29.79,SE,125,12.0,19.2,73,0.00,,---,0.00,840.00,VWS V14.01,2013-09-27 19:10:00,
2013-09-27 14:11:00,89.5,79.7,29.79,SSE,156,8.0,19.2,73,0.00,,---,0.00,840.00,VWS V14.01,2013-09-27 19:11:00,
2013-09-27 14:15:00,89.3,79.9,29.78,SE,128,10.0,16.2,74,0.00,,---,0.00,889.00,VWS V14.01,2013-09-27 19:15:00,
2013-09-27 14:16:00,89.3,79.9,29.78,ESE,115,11.0,16.2,74,0.00,,---,0.00,861.00,VWS V14.01,2013-09-27 19:16:00,
2013-09-27 14:20:00,89.7,80.3,29.78,ESE,121,9.0,16.2,74,0.00,,---,0.00,807.00,VWS V14.01,2013-09-27 19:20:00,
2013-09-27 14:21:00,89.5,80.1,29.78,SE,142,11.0,16.2,74,0.00,,---,0.00,807.00,VWS V14.01,2013-09-27 19:21:00,
2013-09-27 14:25:00,90.1,79.9,29.78,SSE,150,6.0,18.2,72,0.00,,---,0.00,807.00,VWS V14.01,2013-09-27 19:25:00,
2013-09-27 14:26:00,89.9,79.7,29.78,ESE,116,10.0,18.2,72,0.00,,---,0.00,807.00,VWS V14.01,2013-09-27 19:26:00,
2013-09-27 14:30:00,89.9,80.5,29.77,ESE,115,5.0,18.2,74,0.00,,---,0.00,946.00,VWS V14.01,2013-09-27 19:30:00,
2013-09-27 14:31:00,89.7,80.3,29.77,SE,129,8.0,18.2,74,0.00,,---,0.00,942.00,VWS V14.01,2013-09-27 19:31:00,
2013-09-27 14:35:00,89.5,80.1,29.77,SE,132,11.0,17.2,74,0.00,,---,0.00,886.00,VWS V14.01,2013-09-27 19:35:00,
2013-09-27 14:36:00,89.7,80.3,29.77,SE,128,11.0,17.2,74,0.00,,---,0.00,946.00,VWS V14.01,2013-09-27 19:36:00,
2013-09-27 14:40:00,89.3,79.9,29.77,East,98,4.0,16.2,74,0.00,,---,0.00,399.00,VWS V14.01,2013-09-27 19:40:00,
2013-09-27 14:41:00,89.0,80.1,29.77,ESE,115,9.0,16.2,75,0.00,,---,0.00,399.00,VWS V14.01,2013-09-27 19:41:00,
2013-09-27 14:45:00,89.3,79.9,29.76,SE,131,7.0,16.2,74,0.00,,---,0.00,302.00,VWS V14.01,2013-09-27 19:45:00,
2013-09-27 14:46:00,89.3,79.9,29.76,SE,126,9.0,16.2,74,0.00,,---,0.00,302.00,VWS V14.01,2013-09-27 19:46:00,
2013-09-27 14:50:00,88.2,79.3,29.76,ESE,110,9.0,18.2,75,0.00,,---,0.00,360.00,VWS V14.01,2013-09-27 19:50:00,
2013-09-27 14:51:00,88.4,79.5,29.76,ESE,123,14.0,18.2,75,0.00,,---,0.00,360.00,VWS V14.01,2013-09-27 19:51:00,
2013-09-27 14:55:00,88.4,79.5,29.76,SE,136,13.0,20.2,75,0.00,,---,0.00,406.00,VWS V14.01,2013-09-27 19:55:00,
2013-09-27 14:56:00,88.4,79.5,29.76,SE,139,10.0,20.2,75,0.00,,---,0.00,406.00,VWS V14.01,2013-09-27 19:56:00,
2013-09-27 15:00:00,89.0,80.1,29.76,SE,142,15.0,17.2,75,0.00,,---,0.00,406.00,VWS V14.01,2013-09-27 20:00:00,
2013-09-27 15:01:00,89.0,80.1,29.76,East,101,10.0,17.2,75,0.00,,---,0.00,406.00,VWS V14.01,2013-09-27 20:01:00,
2013-09-27 15:05:00,88.8,80.3,29.76,ESE,117,10.0,19.2,76,0.00,,---,0.00,951.00,VWS V14.01,2013-09-27 20:05:00,
2013-09-27 15:06:00,88.8,80.3,29.76,SE,128,11.0,19.2,76,0.00,,---,0.00,951.00,VWS V14.01,2013-09-27 20:06:00,
2013-09-27 15:10:00,88.4,79.9,29.76,SE,137,3.0,16.2,76,0.00,,---,0.00,329.00,VWS V14.01,2013-09-27 20:10:00,
2013-09-27 15:11:00,88.4,79.9,29.76,ESE,120,11.0,16.2,76,0.00,,---,0.00,884.00,VWS V14.01,2013-09-27 20:11:00,
2013-09-27 15:15:00,88.0,79.5,29.76,SE,136,10.0,20.2,76,0.00,,---,0.00,318.00,VWS V14.01,2013-09-27 20:15:00,
2013-09-27 15:16:00,88.0,79.5,29.76,SE,132,5.0,20.2,76,0.00,,---,0.00,318.00,VWS V14.01,2013-09-27 20:16:00,
2013-09-27 15:20:00,88.0,79.9,29.76,SE,137,9.0,17.2,77,0.00,,---,0.00,257.00,VWS V14.01,2013-09-27 20:20:00,
2013-09-27 15:21:00,88.0,79.9,29.76,SE,132,14.0,17.2,77,0.00,,---,0.00,257.00,VWS V14.01,2013-09-27 20:21:00,
2013-09-27 15:25:00,88.4,79.5,29.76,SSE,150,10.0,17.2,75,0.00,,---,0.00,336.00,VWS V14.01,2013-09-27 20:25:00,
2013-09-27 15:26:00,88.4,79.9,29.76,East,99,13.0,17.2,76,0.00,,---,0.00,336.00,VWS V14.01,2013-09-27 20:26:00,
2013-09-27 15:30:00,88.8,79.4,29.75,SE,134,10.0,17.2,74,0.00,,---,0.00,868.00,VWS V14.01,2013-09-27 20:30:00,
2013-09-27 15:31:00,88.8,79.4,29.75,SE,141,13.0,17.2,74,0.00,,---,0.00,868.00,VWS V14.01,2013-09-27 20:31:00,
2013-09-27 15:35:00,88.0,79.5,29.75,SE,135,6.0,19.2,76,0.00,,---,0.00,868.00,VWS V14.01,2013-09-27 20:35:00,
2013-09-27 15:36:00,88.2,79.7,29.75,ESE,118,9.0,19.2,76,0.00,,---,0.00,868.00,VWS V14.01,2013-09-27 20:36:00,
2013-09-27 15:40:00,88.4,80.3,29.75,SE,138,12.0,16.2,77,0.00,,---,0.00,649.00,VWS V14.01,2013-09-27 20:40:00,
2013-09-27 15:41:00,88.2,80.1,29.75,SE,132,11.0,16.2,77,0.00,,---,0.00,649.00,VWS V14.01,2013-09-27 20:41:00,
2013-09-27 15:45:00,88.6,79.7,29.76,SE,145,6.0,16.2,75,0.00,,---,0.00,779.00,VWS V14.01,2013-09-27 20:45:00,
2013-09-27 15:46:00,88.6,79.7,29.76,ESE,104,12.0,16.2,75,0.00,,---,0.00,779.00,VWS V14.01,2013-09-27 20:46:00,
2013-09-27 15:50:00,88.4,79.9,29.76,SE,138,8.0,18.2,76,0.00,,---,0.00,346.00,VWS V14.01,2013-09-27 20:50:00,
2013-09-27 15:51:00,88.4,79.5,29.76,SE,144,11.0,18.2,75,0.00,,---,0.00,346.00,VWS V14.01,2013-09-27 20:51:00,
2013-09-27 15:55:00,89.3,80.3,29.76,SE,139,6.0,14.2,75,0.00,,---,0.00,510.00,VWS V14.01,2013-09-27 20:55:00,
2013-09-27 15:56:00,89.3,80.3,29.76,SE,125,4.0,14.2,75,0.00,,---,0.00,510.00,VWS V14.01,2013-09-27 20:56:00,
2013-09-27 16:00:00,88.8,79.9,29.75,SE,133,11.0,18.2,75,0.00,,---,0.00,796.00,VWS V14.01,2013-09-27 21:00:00,
2013-09-27 16:01:00,88.8,80.3,29.75,SE,145,7.0,17.2,76,0.00,,---,0.00,796.00,VWS V14.01,2013-09-27 21:01:00,
2013-09-27 16:05:00,88.2,79.7,29.75,ESE,120,10.0,19.2,76,0.00,,---,0.00,330.00,VWS V14.01,2013-09-27 21:05:00,
2013-09-27 16:10:00,88.0,79.9,29.75,East,94,6.0,16.2,77,0.00,,---,0.00,348.00,VWS V14.01,2013-09-27 21:10:00,
2013-09-27 16:15:00,88.0,80.3,29.75,East,98,7.0,16.2,78,0.00,,---,0.00,267.00,VWS V14.01,2013-09-27 21:15:00,
2013-09-27 16:16:00,88.0,80.3,29.75,ESE,115,10.0,16.2,78,0.00,,---,0.00,267.00,VWS V14.01,2013-09-27 21:16:00,
2013-09-27 16:20:00,88.2,79.7,29.75,ESE,108,5.0,16.2,76,0.00,,---,0.00,339.00,VWS V14.01,2013-09-27 21:20:00,
2013-09-27 16:25:00,88.2,80.1,29.75,ESE,121,10.0,17.2,77,0.00,,---,0.00,229.00,VWS V14.01,2013-09-27 21:25:00,
2013-09-27 16:30:00,87.6,79.9,29.75,SE,129,9.0,18.2,78,0.00,,---,0.00,176.00,VWS V14.01,2013-09-27 21:30:00,
2013-09-27 16:35:00,87.6,79.9,29.75,SE,145,5.0,17.2,78,0.00,,---,0.00,355.00,VWS V14.01,2013-09-27 21:35:00,
2013-09-27 16:40:00,87.4,79.7,29.75,SE,135,10.0,21.2,78,0.00,,---,0.00,355.00,VWS V14.01,2013-09-27 21:40:00,
2013-09-27 16:45:00,88.0,79.9,29.75,ESE,113,9.0,17.2,77,0.00,,---,0.00,536.00,VWS V14.01,2013-09-27 21:45:00,
2013-09-27 16:50:00,88.0,79.9,29.75,East,90,9.0,17.2,77,0.00,,---,0.00,209.00,VWS V14.01,2013-09-27 21:50:00,
2013-09-27 16:55:00,87.6,79.9,29.75,ESE,122,13.0,18.2,78,0.00,,---,0.00,207.00,VWS V14.01,2013-09-27 21:55:00,
2013-09-27 17:00:00,87.0,78.9,29.74,ESE,117,6.0,18.2,77,0.00,,---,0.00,169.00,VWS V14.01,2013-09-27 22:00:00,
2013-09-27 17:05:00,87.2,79.5,29.74,SE,138,11.0,23.2,78,0.00,,---,0.00,169.00,VWS V14.01,2013-09-27 22:05:00,
2013-09-27 17:10:00,87.8,80.1,29.74,SE,143,6.0,18.2,78,0.00,,---,0.00,475.00,VWS V14.01,2013-09-27 22:10:00,
2013-09-27 17:15:00,88.0,79.9,29.74,SE,134,11.0,19.2,77,0.00,,---,0.00,288.00,VWS V14.01,2013-09-27 22:15:00,
2013-09-27 17:20:00,87.4,79.7,29.74,ESE,123,11.0,19.2,78,0.00,,---,0.00,190.00,VWS V14.01,2013-09-27 22:20:00,
2013-09-27 17:25:00,87.0,79.7,29.74,ESE,112,8.0,16.2,79,0.00,,---,0.00,176.00,VWS V14.01,2013-09-27 22:25:00,
2013-09-27 17:30:00,86.7,79.4,29.74,ESE,115,5.0,17.2,79,0.00,,---,0.00,188.00,VWS V14.01,2013-09-27 22:30:00,
2013-09-27 17:35:00,86.5,79.6,29.74,SE,130,9.0,17.2,80,0.00,,---,0.00,329.00,VWS V14.01,2013-09-27 22:35:00,
2013-09-27 17:40:00,86.7,79.4,29.74,SE,126,4.0,16.2,79,0.00,,---,0.00,176.00,VWS V14.01,2013-09-27 22:40:00,
2013-09-27 17:45:00,86.7,79.4,29.75,SE,130,13.0,15.2,79,0.00,,---,0.00,278.00,VWS V14.01,2013-09-27 22:45:00,
2013-09-27 17:50:00,86.5,80.0,29.75,SE,126,5.0,14.2,81,0.00,,---,0.00,225.00,VWS V14.01,2013-09-27 22:50:00,
2013-09-27 17:55:00,86.1,80.0,29.75,ESE,121,8.0,15.2,82,0.00,,---,0.00,132.00,VWS V14.01,2013-09-27 22:55:00,
2013-09-27 18:00:00,85.9,79.4,29.75,SE,138,7.0,16.2,81,0.00,,---,0.00,142.00,VWS V14.01,2013-09-27 23:00:00,
2013-09-27 18:05:00,86.3,79.8,29.75,ESE,119,7.0,15.2,81,0.00,,---,0.00,113.00,VWS V14.01,2013-09-27 23:05:00,
2013-09-27 18:10:00,86.1,79.6,29.75,ESE,115,15.0,19.2,81,0.00,,---,0.00,102.00,VWS V14.01,2013-09-27 23:10:00,
2013-09-27 18:15:00,85.9,79.8,29.75,ESE,120,6.0,14.2,82,0.00,,---,0.00,91.00,VWS V14.01,2013-09-27 23:15:00,
2013-09-27 18:20:00,85.7,79.9,29.75,ESE,103,4.0,16.2,83,0.00,,---,0.00,65.00,VWS V14.01,2013-09-27 23:20:00,
2013-09-27 18:25:00,85.3,79.6,29.75,ESE,117,9.0,16.2,83,0.00,,---,0.00,111.00,VWS V14.01,2013-09-27 23:25:00,
2013-09-27 18:30:00,85.3,79.9,29.75,SE,130,7.0,17.2,84,0.00,,---,0.00,51.00,VWS V14.01,2013-09-27 23:30:00,
2013-09-27 18:35:00,85.3,79.9,29.75,ESE,115,8.0,15.2,84,0.00,,---,0.00,40.00,VWS V14.01,2013-09-27 23:35:00,
2013-09-27 18:40:00,84.7,79.3,29.75,ESE,117,13.0,16.2,84,0.00,,---,0.00,19.00,VWS V14.01,2013-09-27 23:40:00,
2013-09-27 18:45:00,84.3,79.7,29.75,East,98,9.0,16.2,86,0.00,,---,0.00,14.00,VWS V14.01,2013-09-27 23:45:00,
2013-09-27 18:50:00,84.1,79.5,29.75,SE,138,10.0,17.2,86,0.00,,---,0.00,12.00,VWS V14.01,2013-09-27 23:50:00,
2013-09-27 18:55:00,84.3,79.7,29.75,ESE,120,9.0,16.2,86,0.00,,---,0.00,9.00,VWS V14.01,2013-09-27 23:55:00,
2013-09-27 19:00:00,84.7,80.1,29.75,East,79,6.0,15.2,86,0.00,,---,0.00,7.00,VWS V14.01,2013-09-28 00:00:00,
2013-09-27 19:05:00,84.5,79.8,29.75,ESE,103,9.0,15.2,86,0.00,,---,0.00,5.00,VWS V14.01,2013-09-28 00:05:00,
2013-09-27 19:10:00,84.1,79.5,29.75,ESE,105,13.0,17.2,86,0.00,,---,0.00,5.00,VWS V14.01,2013-09-28 00:10:00,
2013-09-27 19:15:00,84.0,79.4,29.74,ESE,123,14.0,17.2,86,0.00,,---,0.00,0.00,VWS V14.01,2013-09-28 00:15:00,
2013-09-27 19:20:00,84.0,79.7,29.74,East,92,8.0,17.2,87,0.00,,---,0.00,0.00,VWS V14.01,2013-09-28 00:20:00,
2013-09-27 19:25:00,83.8,79.5,29.74,ESE,103,14.0,16.2,87,0.00,,---,0.00,0.00,VWS V14.01,2013-09-28 00:25:00,
2013-09-27 19:30:00,84.0,79.7,29.75,ESE,121,8.0,15.2,87,0.00,,---,0.00,0.00,VWS V14.01,2013-09-28 00:30:00,
2013-09-27 19:35:00,84.0,78.3,29.75,SE,128,9.0,15.2,83,0.00,,---,0.00,0.00,VWS V14.01,2013-09-28 00:35:00,
2013-09-27 19:40:00,83.8,79.5,29.75,ESE,123,14.0,17.2,87,0.00,,---,0.00,0.00,VWS V14.01,2013-09-28 00:40:00,
2013-09-27 19:45:00,83.6,79.7,29.75,SE,134,11.0,17.2,88,0.00,,---,0.00,0.00,VWS V14.01,2013-09-28 00:45:00,
2013-09-27 19:50:00,83.8,79.9,29.75,East,98,5.0,16.2,88,0.00,,---,0.00,0.00,VWS V14.01,2013-09-28 00:50:00,
2013-09-27 19:55:00,84.0,79.7,29.75,ESE,106,5.0,16.2,87,0.00,,---,0.00,0.00,VWS V14.01,2013-09-28 00:55:00,
2013-09-27 20:00:00,84.3,80.0,29.76,East,95,5.0,16.2,87,0.00,,---,0.00,0.00,VWS V14.01,2013-09-28 01:00:00,
2013-09-27 20:05:00,84.3,79.7,29.76,ESE,115,4.0,17.2,86,0.00,,---,0.00,0.00,VWS V14.01,2013-09-28 01:05:00,
2013-09-27 20:10:00,84.1,79.8,29.76,SE,127,12.0,16.2,87,0.00,,---,0.00,0.00,VWS V14.01,2013-09-28 01:10:00,
2013-09-27 20:15:00,83.8,79.2,29.76,SE,134,6.0,14.2,86,0.00,,---,0.00,0.00,VWS V14.01,2013-09-28 01:15:00,
2013-09-27 20:20:00,83.8,79.5,29.76,SE,138,7.0,15.2,87,0.00,,---,0.00,0.00,VWS V14.01,2013-09-28 01:20:00,
2013-09-27 20:25:00,83.6,79.0,29.76,ESE,105,11.0,17.2,86,0.00,,---,0.00,0.00,VWS V14.01,2013-09-28 01:25:00,
2013-09-27 20:30:00,83.8,79.2,29.76,SE,128,6.0,16.2,86,0.00,,---,0.00,0.00,VWS V14.01,2013-09-28 01:30:00,
2013-09-27 20:35:00,84.0,79.4,29.76,ESE,117,10.0,15.2,86,0.00,,---,0.00,0.00,VWS V14.01,2013-09-28 01:35:00,
2013-09-27 20:40:00,84.0,79.4,29.76,ESE,113,2.0,16.2,86,0.00,,---,0.00,0.00,VWS V14.01,2013-09-28 01:40:00,
2013-09-27 20:45:00,84.0,79.7,29.77,East,98,6.0,13.2,87,0.00,,---,0.00,0.00,VWS V14.01,2013-09-28 01:45:00,
2013-09-27 20:50:00,83.8,79.5,29.77,SE,134,5.0,19.2,87,0.00,,---,0.00,0.00,VWS V14.01,2013-09-28 01:50:00,
2013-09-27 20:55:00,84.0,79.4,29.77,ESE,104,11.0,15.2,86,0.00,,---,0.00,0.00,VWS V14.01,2013-09-28 01:55:00,
2013-09-27 21:00:00,84.0,79.7,29.77,ESE,111,6.0,16.2,87,0.00,,---,0.00,0.00,VWS V14.01,2013-09-28 02:00:00,
2013-09-27 21:05:00,84.1,79.8,29.77,ESE,111,6.0,14.2,87,0.00,,---,0.00,0.00,VWS V14.01,2013-09-28 02:05:00,
2013-09-27 21:10:00,84.1,79.5,29.77,East,101,9.0,14.2,86,0.00,,---,0.00,0.00,VWS V14.01,2013-09-28 02:10:00,
2013-09-27 21:15:00,83.8,79.2,29.78,SE,139,6.0,15.2,86,0.00,,---,0.00,0.00,VWS V14.01,2013-09-28 02:15:00,
2013-09-27 21:20:00,83.6,79.0,29.78,SE,125,6.0,21.2,86,0.00,,---,0.00,0.00,VWS V14.01,2013-09-28 02:20:00,
2013-09-27 21:25:00,83.6,79.0,29.78,SE,130,11.0,19.2,86,0.00,,---,0.00,0.00,VWS V14.01,2013-09-28 02:25:00,
2013-09-27 21:30:00,83.6,79.3,29.78,SSE,157,9.0,14.2,87,0.00,,---,0.00,0.00,VWS V14.01,2013-09-28 02:30:00,
2013-09-27 21:35:00,83.6,79.3,29.78,SE,140,12.0,16.2,87,0.00,,---,0.00,0.00,VWS V14.01,2013-09-28 02:35:00,
2013-09-27 21:40:00,84.1,79.8,29.78,SE,126,12.0,15.2,87,0.00,,---,0.00,0.00,VWS V14.01,2013-09-28 02:40:00,
2013-09-27 21:45:00,84.1,79.1,29.78,ESE,121,10.0,17.2,85,0.00,,---,0.00,0.00,VWS V14.01,2013-09-28 02:45:00,
2013-09-27 21:50:00,84.0,79.0,29.79,East,101,7.0,17.2,85,0.00,,---,0.00,0.00,VWS V14.01,2013-09-28 02:50:00,
2013-09-27 21:55:00,84.0,79.4,29.79,ESE,121,9.0,13.2,86,0.00,,---,0.00,0.00,VWS V14.01,2013-09-28 02:55:00,
2013-09-27 22:00:00,84.0,79.7,29.79,ENE,78,7.0,16.2,87,0.00,,---,0.00,0.00,VWS V14.01,2013-09-28 03:00:00,
2013-09-27 22:05:00,83.6,79.3,29.80,ESE,115,9.0,16.2,87,0.00,,---,0.00,0.00,VWS V14.01,2013-09-28 03:05:00,
2013-09-27 22:10:00,83.6,79.3,29.80,SE,128,11.0,18.2,87,0.00,,---,0.00,0.00,VWS V14.01,2013-09-28 03:10:00,
2013-09-27 22:15:00,83.8,79.5,29.80,SSE,153,5.0,15.2,87,0.00,,---,0.00,0.00,VWS V14.01,2013-09-28 03:15:00,
2013-09-27 22:20:00,84.0,79.7,29.80,SSE,164,10.0,15.2,87,0.00,,---,0.00,0.00,VWS V14.01,2013-09-28 03:20:00,
2013-09-27 22:25:00,83.6,79.7,29.80,SE,132,12.0,15.2,88,0.00,,---,0.00,0.00,VWS V14.01,2013-09-28 03:25:00,
2013-09-27 22:30:00,83.6,79.7,29.80,East,99,6.0,14.2,88,0.00,,---,0.00,0.00,VWS V14.01,2013-09-28 03:30:00,
2013-09-27 22:35:00,83.4,79.5,29.80,SE,135,11.0,18.2,88,0.00,,---,0.00,0.00,VWS V14.01,2013-09-28 03:35:00,
2013-09-27 22:40:00,83.4,79.5,29.80,SE,144,11.0,18.2,88,0.00,,---,0.00,0.00,VWS V14.01,2013-09-28 03:40:00,
2013-09-27 22:45:00,83.6,79.3,29.80,SE,144,10.0,19.2,87,0.00,,---,0.00,0.00,VWS V14.01,2013-09-28 03:45:00,
2013-09-27 22:50:00,83.8,79.5,29.80,ESE,121,5.0,18.2,87,0.00,,---,0.00,0.00,VWS V14.01,2013-09-28 03:50:00,
2013-09-27 22:55:00,84.1,79.5,29.80,SE,136,13.0,14.2,86,0.00,,---,0.00,0.00,VWS V14.01,2013-09-28 03:55:00,
2013-09-27 23:00:00,84.0,79.4,29.80,SE,135,11.0,16.2,86,0.00,,---,0.00,0.00,VWS V14.01,2013-09-28 04:00:00,
2013-09-27 23:01:00,84.0,79.4,29.80,SSE,149,10.0,16.2,86,0.00,,---,0.00,0.00,VWS V14.01,2013-09-28 04:01:00,
2013-09-27 23:02:00,83.8,79.5,29.80,SSE,161,14.0,17.2,87,0.00,,---,0.00,0.00,VWS V14.01,2013-09-28 04:02:00,
2013-09-27 23:05:00,83.6,79.7,29.80,SE,137,5.0,17.2,88,0.00,,---,0.00,0.00,VWS V14.01,2013-09-28 04:05:00,
2013-09-27 23:07:00,83.6,79.7,29.80,ESE,120,10.0,11.2,88,0.00,,---,0.00,0.00,VWS V14.01,2013-09-28 04:07:00,
2013-09-27 23:10:00,83.4,79.5,29.80,SSE,151,18.0,19.2,88,0.00,,---,0.00,0.00,VWS V14.01,2013-09-28 04:10:00,
2013-09-27 23:12:00,83.4,79.5,29.80,ESE,122,9.0,19.2,88,0.00,,---,0.00,0.00,VWS V14.01,2013-09-28 04:12:00,
2013-09-27 23:15:00,83.4,79.5,29.80,SE,136,10.0,19.2,88,0.00,,---,0.00,0.00,VWS V14.01,2013-09-28 04:15:00,
2013-09-27 23:17:00,83.4,79.5,29.80,SSE,153,6.0,17.2,88,0.00,,---,0.00,0.00,VWS V14.01,2013-09-28 04:17:00,
2013-09-27 23:20:00,83.4,79.5,29.80,SE,140,8.0,17.2,88,0.00,,---,0.00,0.00,VWS V14.01,2013-09-28 04:20:00,
2013-09-27 23:22:00,83.4,79.5,29.80,SE,130,9.0,10.2,88,0.00,,---,0.00,0.00,VWS V14.01,2013-09-28 04:22:00,
2013-09-27 23:25:00,83.4,79.5,29.80,SE,145,8.0,15.2,88,0.00,,---,0.00,0.00,VWS V14.01,2013-09-28 04:25:00,
2013-09-27 23:26:00,83.4,79.5,29.80,SE,139,6.0,10.2,88,0.00,,---,0.00,0.00,VWS V14.01,2013-09-28 04:26:00,
2013-09-27 23:30:00,83.8,79.5,29.81,ESE,109,10.0,18.2,87,0.00,,---,0.00,0.00,VWS V14.01,2013-09-28 04:30:00,
2013-09-27 23:31:00,83.8,79.5,29.81,ESE,116,10.0,11.2,87,0.00,,---,0.00,0.00,VWS V14.01,2013-09-28 04:31:00,
2013-09-27 23:35:00,83.4,79.1,29.81,SE,141,12.0,19.2,87,0.00,,---,0.00,0.00,VWS V14.01,2013-09-28 04:35:00,
2013-09-27 23:36:00,83.4,79.1,29.81,SSE,158,12.0,15.2,87,0.00,,---,0.00,0.00,VWS V14.01,2013-09-28 04:36:00,
2013-09-27 23:40:00,83.4,79.1,29.81,ESE,106,9.0,16.2,87,0.00,,---,0.00,0.00,VWS V14.01,2013-09-28 04:40:00,
2013-09-27 23:41:00,83.4,79.1,29.81,SSE,147,14.0,15.2,87,0.00,,---,0.00,0.00,VWS V14.01,2013-09-28 04:41:00,
2013-09-27 23:45:00,83.6,79.3,29.81,SE,142,4.0,17.2,87,0.00,,---,0.00,0.00,VWS V14.01,2013-09-28 04:45:00,
2013-09-27 23:46:00,83.6,79.3,29.81,SE,139,12.0,15.2,87,0.00,,---,0.00,0.00,VWS V14.01,2013-09-28 04:46:00,
2013-09-27 23:50:00,83.6,79.3,29.81,SE,144,10.0,18.2,87,0.00,,---,0.00,0.00,VWS V14.01,2013-09-28 04:50:00,
2013-09-27 23:51:00,83.6,79.3,29.81,SE,133,12.0,13.2,87,0.00,,---,0.00,0.00,VWS V14.01,2013-09-28 04:51:00,
2013-09-27 23:55:00,83.6,79.3,29.81,ESE,117,14.0,16.2,87,0.00,,---,0.00,0.00,VWS V14.01,2013-09-28 04:55:00,
2013-09-27 23:56:00,83.6,79.3,29.81,ESE,109,15.0,16.2,87,0.00,,---,0.00,0.00,VWS V14.01,2013-09-28 04:56:00,